Location: Fluertsh�userhof
(48.7537°N, 10.3850°E)
Time: 09:59:36
(UTC+00:00)

Cosmos 1626 - Pass Details

Date: 17 January 2021
Orbit: 490 x 494 km, 82.5° (Epoch: 28 February)

Event Time Altitude Azimuth Distance (km) Brightness Sun altitude
Rises 17:44:30 0° 213° (SSW) 2,567 6.4 -17.9°
Reaches altitude 10° 17:46:47 10° 224° (SW) 1,689 5.6 -18.2°
Maximum altitude 17:50:05 30° 287° (WNW) 915 4.0 -18.8°
Drops below altitude 10° 17:53:24 10° 350° (N) 1,701 4.8 -19.3°
Enters shadow 17:55:22 - 0° (N) 2,456 5.5 -19.6°
